Regional Weather Roundup
Issued by NWS

Home | Current Version | Previous Version | Text Only | Print | Product List | Glossary Off
Versions: 1 2 3 4 5 6 7 8 9 10 11 12 13 14 15 16 17 18 19 20 21 22 23 24 25 26 27

000
ASUS45 KCYS 220510
RWRWY

WYOMING REGIONAL WEATHER ROUNDUP
NATIONAL WEATHER SERVICE CHEYENNE WY
1000 PM MST SUN JAN 21 2018

NOTE:  "FAIR" INDICATES FEW OR NO CLOUDS BELOW 12,000 FEET
WITH NO SIGNIFICANT WEATHER AND/OR OBSTRUCTIONS TO VISIBILITY.

WYZ001-220600-
YELLOWSTONE NATIONAL PARK

CITY           SKY/WX    TMP DP  RH WIND       PRES   REMARKS
LK YELLOWSTONE   N/A     -2  -6  83 CALM      30.15S
W YELLOWSTONE  NOT AVBL

$$
WYZ002>013-054>058-071-098>099-220600-
NORTHERN WYOMING

CITY           SKY/WX    TMP DP  RH WIND       PRES   REMARKS
JACKSON        FAIR       0  -3  87 NE7       30.18R WCI -13
CODY           FAIR      17  13  84 VRB3      30.02S
GREYBULL       FAIR      18  15  88 E3        30.08S
WORLAND        FAIR       9   8  96 CALM      30.07R
SHERIDAN       FAIR      13   9  84 S3        30.01S
BUFFALO        FAIR      21   5  50 W7        30.00S WCI  12
GILLETTE       FAIR      21  16  81 SW13      30.00S WCI   9
HULETT         FAIR      18  14  86 S6        30.01F WCI   9
NEWCASTLE      FAIR      18  16  93 NW10      30.01F WCI   6

$$
WYZ014>020-022>026-101>103-220600-
CENTRAL WYOMING

CITY           SKY/WX    TMP DP  RH WIND       PRES   REMARKS
BIG PINEY      FAIR       9   4  80 NW8       30.11S WCI  -3
PINEDALE       FAIR       1   0  92 N3        30.10F
DUBOIS         FAIR      19   3  49 W23       30.04R WCI   2
LANDER         FAIR      11   5  77 CALM      30.04S
RIVERTON       FAIR       7   3  84 NW9       30.05S WCI  -7
CASPER         FAIR      10   7  87 W8        30.03S WCI  -2
DOUGLAS        FAIR      15  10  80 NW14      30.02F WCI   0

$$
WYZ021-027>030-104>119-220600-
SOUTHERN WYOMING

CITY           SKY/WX    TMP DP  RH WIND       PRES   REMARKS
EVANSTON       FAIR       8   5  87 SW10      30.18R WCI  -6
FORT BRIDGER   FAIR      15  10  81 W17G25    30.19R WCI  -1
ROCK SPRINGS   FAIR      13   8  81 W24       30.11R WCI  -7
DIXON          LGT SNOW  13   9  84 CALM      30.14S
RAWLINS        MOCLDY    13  10  88 W10G16    30.04F WCI   0
SARATOGA       FAIR       9   5  85 CALM      30.06R
LARAMIE        FAIR       7   2  80 NW9       29.94S WCI  -7
CHEYENNE       CLOUDY    20  13  74 NW22G32   29.91S WCI   3
TORRINGTON     CLOUDY    25  18  74 NW17G24   29.96F WCI  12

$$




USA.gov is the U.S. government's official web portal to all federal, state and local government web resources and services.